QPF
0.00 0.00 0.00 0.00 0.00 0.00 0.00 0.00 0.00 0.02 0.01 0.00 0.00 0.00 0.00 0.00 0.00 0.00 0.00 0.00 0.00 0.00 0.00 0.00 0.00 0.00 0.00 0.00 0.00 0.00 0.00 0.00
0.00 0.00 0.00 0.00 0.00 0.00 0.00 0.00 0.00 0.01 0.00 0.00 0.00 0.00 0.00 0.00 0.00 0.00 0.00 0.00 0.00 0.00 0.00 0.00 0.00 0.00 0.00 0.00 0.00 0.00 0.00 0.00
0.00 0.00 0.00 0.00 0.00 0.00 0.00 0.00 0.00 0.00 0.01 0.00 0.00 0.00 0.00 0.00 0.00 0.00 0.00 0.00 0.00 0.00 0.00 0.00 0.00 0.00 0.00 0.00 0.00 0.00 0.00 0.00
0.00 0.00 0.00 0.00 0.00 0.00 0.00 0.00 0.00 0.00 0.00 0.00 0.00 0.00 0.00 0.00 0.00 0.00 0.00 0.00 0.00 0.00 0.00 0.00 0.00 0.00 0.00 0.00 0.00 0.00 0.00 0.00
0.00 0.00 0.00 0.00 0.00 0.00 0.00 0.00 0.00 0.00 0.00 0.00 0.00 0.00 0.00 0.00 0.00 0.00 0.00 0.00 0.00 0.00 0.00 0.00 0.00 0.00 0.00 0.00 0.00 0.00 0.00 0.00
0.00 0.00 0.00 0.00 0.00 0.00 0.00 0.00 0.00 0.00 0.00 0.00 0.00 0.00 0.00 0.00 0.00 0.00 0.00 0.00 0.00 0.00 0.00 0.00 0.00 0.00 0.00 0.00 0.00 0.00 0.00 0.00
0.00 0.00 0.00 0.00 0.00 0.00 0.00 0.01 0.02 0.01 0.00 0.00 0.00 0.00 0.00 0.00 0.00 0.00 0.00 0.00 0.00 0.00 0.00 0.00 0.00 0.00 0.00 0.00 0.00 0.00 0.00 0.00
0.00 0.00 0.00 0.00 0.00 0.00 0.00 0.01 0.02 0.01 0.00 0.00 0.00 0.00 0.00 0.00 0.00 0.00 0.00 0.00 0.00 0.00 0.00 0.00 0.00 0.00 0.00 0.00 0.00 0.00 0.00 0.00
0.00 0.00 0.00 0.00 0.00 0.00 0.00 0.00 0.01 0.01 0.00 0.00 0.00 0.00 0.00 0.00 0.00 0.00 0.00 0.00 0.00 0.00 0.00 0.00 0.00 0.00 0.00 0.00 0.00 0.00 0.00 0.00
0.00 0.00 0.00 0.00 0.00 0.00 0.01 0.02 0.01 0.01 0.00 0.00 0.00 0.00 0.00 0.00 0.00 0.00 0.00 0.00 0.00 0.00 0.00 0.00 0.00 0.00 0.00 0.00 0.00 0.00 0.00 0.00
0.00 0.00 0.00 0.00 0.00 0.01 0.03 0.02 0.01 0.00 0.00 0.00 0.00 0.00 0.00 0.00 0.00 0.00 0.00 0.00 0.00 0.00 0.00 0.00 0.00 0.00 0.00 0.00 0.00 0.00 0.00 0.00
0.00 0.00 0.00 0.00 0.00 0.02 0.03 0.01 0.01 0.02 0.01 0.00 0.00 0.00 0.00 0.00 0.00 0.00 0.00 0.00 0.00 0.00 0.00 0.00 0.00 0.00 0.00 0.00 0.00 0.00 0.00 0.00
0.00 0.00 0.00 0.00 0.00 0.01 0.01 0.01 0.00 0.00 0.00 0.00 0.00 0.00 0.00 0.00 0.00 0.00 0.00 0.00 0.00 0.00 0.00 0.00 0.00 0.00 0.00 0.00 0.00 0.00 0.00 0.00
0.00 0.01 0.03 0.02 0.02 0.02 0.02 0.01 0.00 0.00 0.00 0.00 0.00 0.00 0.00 0.00 0.00 0.00 0.00 0.00 0.00 0.00 0.00 0.00 0.00 0.00 0.00 0.00 0.00 0.00 0.00 0.00
0.00 0.00 0.01 0.01 0.01 0.01 0.01 0.00 0.00 0.00 0.00 0.00 0.00 0.00 0.00 0.00 0.00 0.01 0.00 0.00 0.00 0.00 0.00 0.00 0.00 0.00 0.00 0.00 0.00 0.00 0.00 0.00
0.00 0.00 0.00 0.00 0.00 0.00 0.00 0.00 0.00 0.00 0.00 0.00 0.00 0.00 0.00 0.01 0.04 0.05 0.04 0.01 0.00 0.00 0.00 0.00 0.00 0.00 0.00 0.00 0.00 0.00 0.00 0.00
0.00 0.00 0.00 0.00 0.00 0.00 0.00 0.00 0.00 0.00 0.00 0.00 0.00 0.00 0.01 0.06 0.11 0.11 0.04 0.00 0.00 0.00 0.00 0.00 0.00 0.00 0.00 0.00 0.00 0.00 0.00 0.00
0.00 0.00 0.00 0.00 0.00 0.00 0.00 0.00 0.00 0.00 0.03 0.03 0.00 0.01 0.05 0.10 0.09 0.07 0.03 0.00 0.00 0.00 0.00 0.00 0.00 0.00 0.00 0.00 0.00 0.00 0.00 0.00
0.00 0.00 0.00 0.00 0.00 0.00 0.00 0.00 0.00 0.00 0.01 0.04 0.03 0.02 0.10 0.10 0.06 0.04 0.03 0.01 0.00 0.00 0.00 0.00 0.00 0.00 0.00 0.00 0.00 0.00 0.00 0.00
MSLP
1003.86 1004.63 1005.49 1006.71 1007.66 1008.31 1008.92 1010.08 1011.15 1012.47 1013.64 1014.73 1015.53 1016.11 1016.94 1017.28 1017.72 1017.97 1018.04 1018.24 1018.69 1019.04 1019.45 1019.92 1020.18 1020.50 1020.65 1020.58 1020.67 1020.66 1020.61 1020.72
1002.93 1003.95 1005.12 1006.11 1007.40 1007.98 1008.43 1009.19 1010.40 1011.56 1012.79 1014.14 1015.30 1016.04 1016.88 1017.59 1017.84 1017.99 1018.28 1018.46 1019.00 1019.38 1019.62 1019.92 1020.30 1020.67 1020.88 1020.67 1020.81 1020.98 1020.97 1020.93
1002.50 1003.25 1004.20 1005.08 1006.03 1006.94 1007.68 1008.51 1009.48 1010.69 1011.79 1012.91 1014.17 1015.62 1016.66 1017.20 1017.78 1018.16 1018.57 1018.79 1019.18 1019.54 1019.75 1020.11 1020.42 1020.80 1020.84 1020.85 1020.83 1021.26 1021.79 1021.54
1001.00 1002.16 1003.01 1004.26 1005.26 1006.01 1006.69 1007.52 1008.59 1009.65 1011.13 1012.47 1014.09 1015.31 1016.67 1017.33 1017.93 1018.42 1018.84 1019.07 1019.25 1019.58 1019.89 1020.13 1020.51 1020.76 1020.84 1021.07 1021.10 1021.19 1022.09 1022.67
999.59 1000.31 1001.80 1002.73 1003.90 1005.38 1006.28 1007.05 1008.13 1009.39 1010.49 1011.72 1012.46 1013.88 1015.60 1016.77 1017.65 1018.42 1018.98 1019.34 1019.41 1019.64 1020.02 1020.29 1020.53 1020.75 1020.87 1021.18 1021.34 1021.58 1022.17 1022.54
998.96 999.83 999.96 1001.23 1003.01 1003.91 1005.18 1006.69 1008.08 1009.10 1009.90 1011.14 1012.45 1013.84 1015.07 1016.26 1017.50 1018.52 1019.14 1019.68 1019.59 1019.76 1020.16 1020.37 1020.51 1020.71 1020.95 1021.18 1021.73 1022.20 1022.50 1022.40
997.80 998.08 999.20 1001.07 1002.68 1003.96 1005.07 1006.15 1007.64 1008.73 1009.87 1011.09 1012.16 1013.39 1014.63 1015.99 1017.21 1018.41 1019.14 1019.70 1019.93 1019.99 1020.20 1020.35 1020.37 1020.71 1020.98 1021.35 1021.93 1022.31 1022.51 1022.68
997.14 998.07 999.48 1001.13 1002.20 1003.08 1004.39 1005.35 1006.51 1008.18 1009.39 1010.68 1011.87 1013.15 1014.32 1015.42 1016.72 1017.78 1018.69 1019.50 1019.95 1020.14 1020.24 1020.30 1020.46 1020.70 1020.97 1021.35 1021.73 1022.16 1022.48 1022.74
995.87 996.51 997.99 999.29 1000.76 1001.86 1003.22 1004.40 1005.67 1007.37 1008.67 1009.95 1010.59 1011.87 1013.49 1015.02 1016.21 1017.58 1018.20 1018.98 1019.68 1019.96 1020.22 1020.18 1020.58 1020.62 1021.09 1021.37 1021.93 1022.23 1022.53 1023.06
995.02 995.58 997.16 999.25 1000.96 1002.49 1003.30 1004.09 1005.88 1007.04 1008.58 1009.84 1011.74 1012.42 1012.44 1014.39 1015.78 1017.46 1018.14 1018.65 1019.62 1019.96 1020.21 1020.30 1020.77 1020.98 1021.30 1021.62 1022.06 1022.42 1022.93 1023.34
995.46 996.93 998.82 1000.46 1002.00 1003.08 1004.04 1005.07 1006.34 1007.35 1008.83 1009.57 1010.72 1011.95 1013.27 1013.64 1015.29 1016.68 1017.82 1018.68 1019.21 1019.91 1020.08 1020.52 1020.92 1021.13 1021.52 1021.88 1022.28 1022.85 1023.27 1023.43
998.35 998.91 999.93 1001.33 1002.90 1004.07 1004.77 1005.52 1006.60 1007.72 1008.91 1009.71 1010.63 1012.43 1013.18 1014.55 1015.43 1016.80 1017.48 1018.36 1018.94 1019.74 1020.17 1020.81 1020.69 1021.24 1021.86 1022.16 1022.78 1023.05 1023.19 1023.88
1000.42 1000.62 1001.43 1002.34 1003.58 1004.49 1005.68 1006.65 1007.45 1007.71 1008.53 1009.75 1010.72 1010.92 1013.62 1014.75 1015.77 1016.83 1017.76 1018.25 1019.04 1019.34 1020.33 1020.50 1020.83 1021.39 1021.99 1022.45 1023.01 1023.21 1023.49 1024.13
1000.66 1001.52 1002.26 1002.95 1003.88 1004.60 1005.56 1006.94 1007.98 1008.51 1009.18 1010.05 1011.33 1012.01 1013.10 1014.59 1015.78 1016.77 1017.56 1018.30 1018.90 1019.66 1020.19 1020.39 1020.88 1021.62 1022.23 1022.61 1023.00 1023.26 1023.81 1024.51
1001.43 1001.83 1002.73 1002.76 1003.49 1004.00 1005.07 1006.39 1007.68 1008.40 1009.46 1010.51 1011.61 1012.42 1013.38 1014.74 1016.09 1016.90 1017.73 1018.35 1019.15 1019.95 1020.25 1020.34 1021.09 1021.58 1022.15 1022.61 1022.99 1023.39 1024.13 1024.82
1000.83 1001.90 1002.78 1003.86 1004.95 1004.85 1005.15 1006.00 1007.30 1008.03 1009.61 1010.80 1011.86 1012.82 1013.84 1014.84 1016.04 1017.22 1018.05 1018.61 1019.50 1019.95 1020.28 1020.61 1021.40 1021.55 1022.25 1022.54 1022.86 1023.57 1024.43 1025.08
1000.75 1001.41 1002.49 1003.43 1004.27 1003.89 1005.27 1006.88 1007.69 1008.11 1009.42 1010.86 1011.98 1013.03 1014.11 1014.86 1015.96 1017.31 1017.80 1019.22 1019.77 1020.35 1020.58 1020.79 1021.29 1021.57 1022.15 1022.38 1022.81 1023.66 1024.68 1025.30
1000.27 1001.16 1001.72 1002.50 1003.36 1003.71 1004.96 1006.57 1007.92 1008.82 1009.59 1010.51 1011.98 1013.06 1013.98 1015.04 1016.15 1016.37 1018.23 1018.56 1020.04 1020.66 1020.91 1021.07 1021.42 1021.71 1022.18 1022.59 1023.31 1024.07 1024.88 1025.71
999.49 1000.52 1001.51 1002.63 1002.80 1003.75 1005.25 1006.81 1008.41 1009.33 1010.00 1010.67 1011.40 1013.09 1014.17 1014.96 1015.95 1017.11 1017.30 1018.90 1019.99 1020.75 1021.11 1021.40 1021.63 1021.94 1022.39 1023.13 1023.80 1024.70 1025.58 1026.20
Thickness
5718 5713 5709 5696 5689 5683 5678 5668 5659 5649 5639 5630 5625 5621 5614 5611 5608 5605 5604 5602 5598 5596 5593 5589 5586 5583 5582 5582 5580 5578 5576 5572
5715 5707 5702 5696 5682 5676 5672 5665 5655 5646 5638 5626 5618 5613 5605 5598 5597 5596 5593 5590 5586 5584 5583 5580 5577 5573 5571 5573 5569 5566 5564 5561
5707 5702 5697 5693 5684 5676 5670 5662 5653 5644 5636 5628 5618 5606 5596 5592 5588 5584 5581 5579 5575 5573 5572 5570 5567 5563 5563 5561 5560 5554 5547 5546
5708 5698 5696 5688 5682 5677 5670 5661 5651 5642 5630 5619 5606 5598 5586 5581 5576 5571 5568 5566 5565 5563 5561 5560 5557 5554 5553 5549 5547 5545 5536 5528
5710 5706 5694 5689 5682 5671 5665 5656 5644 5634 5624 5614 5610 5602 5587 5575 5567 5562 5557 5554 5554 5552 5550 5548 5547 5546 5542 5537 5536 5533 5526 5519
5703 5698 5700 5691 5676 5672 5662 5649 5635 5625 5619 5610 5600 5591 5579 5568 5560 5551 5545 5542 5541 5540 5538 5537 5538 5534 5530 5528 5523 5518 5513 5510
5700 5702 5696 5679 5668 5660 5654 5644 5627 5617 5607 5597 5591 5581 5571 5561 5551 5539 5534 5530 5528 5527 5525 5526 5526 5522 5522 5517 5512 5506 5501 5497
5691 5688 5678 5667 5660 5657 5647 5639 5628 5612 5602 5591 5580 5569 5561 5554 5542 5535 5528 5521 5516 5514 5514 5515 5515 5514 5512 5508 5503 5497 5491 5486
5692 5691 5680 5672 5662 5654 5644 5637 5625 5608 5597 5587 5580 5569 5556 5543 5536 5525 5520 5513 5507 5504 5502 5503 5503 5504 5501 5498 5491 5485 5480 5474
5688 5687 5676 5660 5648 5635 5631 5626 5614 5600 5586 5576 5560 5555 5554 5538 5529 5514 5510 5505 5497 5494 5491 5492 5492 5492 5488 5485 5479 5473 5467 5463
5676 5665 5649 5637 5627 5618 5612 5607 5598 5589 5573 5568 5558 5549 5537 5534 5521 5511 5502 5494 5489 5483 5481 5482 5483 5480 5476 5472 5467 5460 5456 5453
5635 5629 5626 5618 5606 5598 5594 5590 5581 5571 5557 5554 5548 5533 5527 5516 5509 5499 5494 5486 5481 5475 5473 5474 5473 5468 5462 5459 5452 5450 5448 5439
5600 5600 5598 5593 5585 5582 5575 5569 5561 5557 5553 5545 5538 5536 5514 5505 5496 5487 5480 5476 5471 5469 5464 5465 5462 5456 5451 5447 5441 5440 5436 5428
5587 5582 5574 5570 5568 5567 5562 5550 5543 5542 5540 5532 5523 5519 5510 5497 5486 5478 5473 5467 5462 5458 5456 5454 5451 5444 5439 5436 5432 5430 5424 5416
5571 5569 5564 5568 5562 5557 5550 5546 5536 5533 5525 5518 5511 5505 5498 5485 5474 5469 5463 5457 5452 5448 5445 5445 5439 5437 5431 5427 5424 5420 5412 5404
5563 5556 5552 5545 5538 5540 5542 5539 5527 5525 5512 5505 5497 5490 5482 5474 5465 5456 5448 5444 5441 5437 5436 5435 5429 5427 5421 5419 5417 5410 5401 5394
5556 5550 5545 5540 5533 5541 5531 5517 5512 5511 5502 5492 5485 5477 5469 5464 5456 5445 5441 5431 5426 5425 5424 5426 5422 5419 5413 5412 5408 5400 5392 5385
5554 5546 5543 5540 5531 5530 5520 5510 5502 5499 5493 5486 5475 5467 5460 5453 5445 5443 5429 5428 5419 5414 5415 5414 5412 5409 5406 5402 5395 5389 5382 5375
5551 5542 5536 5527 5525 5518 5508 5498 5488 5485 5481 5477 5472 5458 5449 5444 5437 5429 5429 5418 5411 5406 5405 5404 5401 5399 5395 5389 5384 5378 5369 5363